Location: Unspecified
(48.5670°N, 0.0000°E)
Time: 08:13:46
(UTC+00:00)

Transit 4A - Pass Details

Date: 02 September 2019
Orbit: 865 x 980 km, 66.8° (Epoch: 18 September)

Event Time Altitude Azimuth Distance (km) Brightness Sun altitude
Rises 00:51:11 0° 322° (NW) 3,629 11.5 -32.2°
Reaches altitude 10° 00:53:49 10° 318° (NW) 2,664 10.6 -32.1°
Enters shadow 00:57:20 34° 302° (WNW) 1,499 9.0 -32.0°
